Weather in Sokolov

Czech Republic     50˚10′25″N   12˚39′09″E
temp.,
°C
wind,
m/s
gust,
m/s
humid.,
%
clouds,
%
prec.,
mm/h
press.,
hPa
HPBL,
m
15 january, fri
fri1501:00−8˚n129414 0.1 102127
04:00−8˚nnw11950 0.0 102126
07:00−7˚nnw129419 0.0 102293
10:00−4˚nw149154 0.0 1024322
13:00−2˚nnw468342 0.1 1023857
16:00−4˚nw279399 0.3 1024393
19:00−7˚nw269594 0.5 1026310
22:00−8˚wnw239619 0.1 102763
16 january, sat
sat1601:00−9˚wnw129645 0.2 102835
04:00−9˚wnw279598 0.1 1027310
07:00−11˚wnw239674 0.1 102786
10:00−9˚w249351 0.0 1027252
13:00−6˚wnw368774 0.1 1026674
16:00−6˚wnw3788100 0.1 1024654
19:00−8˚w259699 0.1 1023171
22:00−9˚wnw229699 0.0 102346
17 january, sun
sun1701:00−10˚wnw129699 0.1 102223
04:00−9˚w1197100 0.1 102021
07:00−10˚w1198100 0.1 102021
10:00−7˚sw1194100 0.0 1020132
13:00−4˚wsw1290100 0.1 1020306
16:00−5˚w1196100 0.1 101968
19:00−6˚nw0097100 0.1 102121
22:00−7˚w119886 0.1 102221
18 january, mon
mon1801:00−6˚wsw229885 0.3 102360
04:00−4˚w289893 0.6 1022316
07:00−2˚w399893 1.4 1023413
10:00−1˚w499496 0.4 1024710
13:00w489592 0.9 1024706
16:00−1˚w4991100 0.4 1024639
19:00−2˚w499599 0.4 1024477
22:00−3˚wsw389799 0.1 1025458
19 january, tue
tue1901:00−3˚wsw389699 0.1 1024546
04:00−3˚sw3897100 0.1 1023523
07:00−5˚sw2397100 0.1 1021109
10:00−4˚sw2791100 0.1 1019316
13:00−2˚sw31096100 1.3 1017489
16:00−2˚wsw3896100 2.2 1015327
19:00sw2899100 2.3 1015266
22:00+1˚sw2999100 0.1 1014307